LVCAM SAEZ-SACO

Flight info

Callsign LVCAM
Flight time 1h 6m
Altitude 36000
Route ATOVO1E ATOVO UW5 ASISA ASISA2X
Aircraft A320/M-SDE3FGHIRWY/LB1

Departure

Time 2026-04-27 21:07
Airport Ezeiza International Airport - Ministro Pistarini (SAEZ)

Arrival

Time 2026-04-27 22:13
Airport Ingeniero Aeronáutico Ambrosio L.V. Taravella International Airport (SACO)
Time Latitude Longitude Altitude Speed Heading
2026-04-27 19:58 -34.81545 -58.53935 75 ft 0 kts 321°
2026-04-27 20:50 -34.81555 -58.53926 75 ft 3 kts 321°
2026-04-27 20:50 -34.81571 -58.53910 67 ft 3 kts 321°
2026-04-27 20:51 -34.81589 -58.53897 74 ft 3 kts 17°
2026-04-27 20:51 -34.81599 -58.53903 71 ft 0 kts 62°
2026-04-27 20:51 -34.81592 -58.53894 70 ft 0 kts 52°
2026-04-27 20:58 -34.81588 -58.53880 75 ft 5 kts 73°
2026-04-27 20:58 -34.81610 -58.53826 67 ft 10 kts 127°
2026-04-27 20:58 -34.81672 -58.53765 74 ft 11 kts 147°
2026-04-27 20:59 -34.81730 -58.53729 71 ft 10 kts 155°
2026-04-27 20:59 -34.81798 -58.53690 72 ft 13 kts 155°
2026-04-27 20:59 -34.81866 -58.53642 66 ft 11 kts 128°
2026-04-27 20:59 -34.81869 -58.53608 75 ft 0 kts 82°
2026-04-27 21:00 -34.81875 -58.53602 73 ft 2 kts 135°
2026-04-27 21:00 -34.81894 -58.53575 75 ft 7 kts 130°
2026-04-27 21:00 -34.81927 -58.53507 73 ft 12 kts 108°
2026-04-27 21:00 -34.81950 -58.53385 73 ft 18 kts 102°
2026-04-27 21:01 -34.81985 -58.53220 72 ft 23 kts 105°
2026-04-27 21:01 -34.82016 -58.53065 78 ft 13 kts 104°
2026-04-27 21:01 -34.82042 -58.52940 84 ft 17 kts 104°
2026-04-27 21:01 -34.82076 -58.52770 77 ft 24 kts 103°
2026-04-27 21:02 -34.82118 -58.52549 73 ft 28 kts 103°
2026-04-27 21:02 -34.82170 -58.52300 72 ft 32 kts 103°
2026-04-27 21:02 -34.82211 -58.52090 74 ft 22 kts 104°
2026-04-27 21:02 -34.82248 -58.51907 75 ft 20 kts 103°
2026-04-27 21:03 -34.82304 -58.51790 70 ft 13 kts 184°
2026-04-27 21:03 -34.82388 -58.51796 71 ft 11 kts 192°
2026-04-27 21:03 -34.82450 -58.51813 82 ft 6 kts 192°
2026-04-27 21:03 -34.82494 -58.51826 85 ft 7 kts 195°
2026-04-27 21:04 -34.82527 -58.51884 86 ft 7 kts 280°
2026-04-27 21:04 -34.82527 -58.51886 82 ft 0 kts 281°
2026-04-27 21:06 -34.82526 -58.51890 85 ft 3 kts 282°
2026-04-27 21:06 -34.82512 -58.51963 85 ft 35 kts 283°
2026-04-27 21:06 -34.82402 -58.52574 79 ft 109 kts 282°
2026-04-27 21:06 -34.82202 -58.53702 83 ft 162 kts 282°
2026-04-27 21:07 -34.81932 -58.55120 533 ft 176 kts 283°
2026-04-27 21:07 -34.81625 -58.56583 1288 ft 178 kts 279°
2026-04-27 21:07 -34.81701 -58.58080 1978 ft 187 kts 260°
2026-04-27 21:07 -34.81706 -58.59843 2006 ft 232 kts 277°
2026-04-27 21:08 -34.81419 -58.61843 2018 ft 245 kts 279°
2026-04-27 21:08 -34.81083 -58.63901 2300 ft 251 kts 280°
2026-04-27 21:08 -34.80732 -58.65971 3416 ft 250 kts 279°
2026-04-27 21:08 -34.80373 -58.67968 4822 ft 232 kts 280°
2026-04-27 21:09 -34.80029 -58.69804 6146 ft 218 kts 280°
2026-04-27 21:09 -34.79692 -58.71592 7065 ft 218 kts 280°
2026-04-27 21:09 -34.79349 -58.73398 7879 ft 221 kts 280°
2026-04-27 21:09 -34.78997 -58.75231 8668 ft 227 kts 280°
2026-04-27 21:10 -34.78621 -58.77197 9070 ft 251 kts 279°
2026-04-27 21:10 -34.78139 -58.79340 9509 ft 275 kts 291°
2026-04-27 21:10 -34.76978 -58.81241 10241 ft 290 kts 313°
2026-04-27 21:10 -34.75421 -58.82956 10607 ft 315 kts 314°
2026-04-27 21:11 -34.73712 -58.84779 10884 ft 340 kts 315°
2026-04-27 21:11 -34.71880 -58.86705 11335 ft 354 kts 315°
2026-04-27 21:11 -34.69996 -58.88667 12063 ft 360 kts 315°
2026-04-27 21:11 -34.68089 -58.90645 12853 ft 363 kts 315°
2026-04-27 21:12 -34.66170 -58.92643 13600 ft 367 kts 314°
2026-04-27 21:12 -34.64231 -58.94676 14327 ft 370 kts 314°
2026-04-27 21:12 -34.62280 -58.96730 15030 ft 374 kts 313°
2026-04-27 21:12 -34.60311 -58.98807 15711 ft 377 kts 313°
2026-04-27 21:13 -34.58327 -59.00900 16373 ft 381 kts 313°
2026-04-27 21:13 -34.56324 -59.03011 17003 ft 384 kts 313°
2026-04-27 21:13 -34.54301 -59.05136 17610 ft 387 kts 313°
2026-04-27 21:13 -34.52256 -59.07281 18184 ft 391 kts 312°
2026-04-27 21:14 -34.50194 -59.09445 18783 ft 394 kts 312°
2026-04-27 21:14 -34.48134 -59.11644 19349 ft 397 kts 311°
2026-04-27 21:14 -34.46070 -59.13878 19897 ft 400 kts 311°
2026-04-27 21:14 -34.43998 -59.16136 20417 ft 403 kts 311°
2026-04-27 21:15 -34.41911 -59.18415 20934 ft 407 kts 311°
2026-04-27 21:15 -34.39805 -59.20712 21407 ft 410 kts 311°
2026-04-27 21:15 -34.37676 -59.23027 21881 ft 414 kts 311°
2026-04-27 21:15 -34.35528 -59.25355 22346 ft 417 kts 311°
2026-04-27 21:16 -34.33363 -59.27692 22847 ft 418 kts 311°
2026-04-27 21:16 -34.31201 -59.30022 23457 ft 416 kts 311°
2026-04-27 21:16 -34.29042 -59.32344 23944 ft 417 kts 311°
2026-04-27 21:16 -34.26872 -59.34675 24392 ft 419 kts 311°
2026-04-27 21:17 -34.24691 -59.37018 24815 ft 422 kts 311°
2026-04-27 21:17 -34.22500 -59.39374 25238 ft 424 kts 311°
2026-04-27 21:17 -34.20295 -59.41739 25659 ft 425 kts 311°
2026-04-27 21:17 -34.18081 -59.44111 26077 ft 427 kts 311°
2026-04-27 21:18 -34.15860 -59.46494 26469 ft 429 kts 311°
2026-04-27 21:18 -34.13632 -59.48884 26852 ft 430 kts 311°
2026-04-27 21:18 -34.11396 -59.51281 27233 ft 432 kts 311°
2026-04-27 21:18 -34.09152 -59.53682 27575 ft 433 kts 311°
2026-04-27 21:19 -34.06898 -59.56094 27920 ft 434 kts 311°
2026-04-27 21:19 -34.04638 -59.58510 28245 ft 436 kts 311°
2026-04-27 21:19 -34.02364 -59.60936 28569 ft 438 kts 311°
2026-04-27 21:20 -33.97795 -59.65811 29174 ft 441 kts 310°
2026-04-27 21:20 -33.95510 -59.68252 29596 ft 439 kts 310°
2026-04-27 21:20 -33.93238 -59.70677 30050 ft 436 kts 310°
2026-04-27 21:20 -33.90983 -59.73075 30485 ft 434 kts 310°
2026-04-27 21:21 -33.88727 -59.75469 30889 ft 433 kts 310°
2026-04-27 21:21 -33.86671 -59.78036 31244 ft 423 kts 301°
2026-04-27 21:21 -33.84846 -59.80796 31598 ft 422 kts 301°
2026-04-27 21:21 -33.83032 -59.83551 31969 ft 421 kts 301°
2026-04-27 21:22 -33.81202 -59.86288 32329 ft 421 kts 302°
2026-04-27 21:22 -33.79333 -59.88989 32684 ft 421 kts 302°
2026-04-27 21:22 -33.77454 -59.91646 33043 ft 420 kts 302°
2026-04-27 21:22 -33.75559 -59.94308 33393 ft 419 kts 302°
2026-04-27 21:23 -33.73673 -59.96966 33726 ft 419 kts 302°
2026-04-27 21:23 -33.71794 -59.99623 34050 ft 418 kts 302°
2026-04-27 21:23 -33.69918 -60.02285 34383 ft 418 kts 302°
2026-04-27 21:23 -33.68048 -60.04945 34710 ft 417 kts 302°
2026-04-27 21:24 -33.66188 -60.07599 35061 ft 416 kts 302°
2026-04-27 21:24 -33.64335 -60.10239 35412 ft 414 kts 302°
2026-04-27 21:24 -33.62480 -60.12875 35727 ft 413 kts 302°
2026-04-27 21:24 -33.60631 -60.15496 36017 ft 412 kts 302°
2026-04-27 21:25 -33.56935 -60.20721 36101 ft 411 kts 302°
2026-04-27 21:25 -33.53245 -60.25939 36108 ft 411 kts 302°
2026-04-27 21:26 -33.49556 -60.31156 36108 ft 410 kts 302°
2026-04-27 21:26 -33.45871 -60.36358 36110 ft 411 kts 303°
2026-04-27 21:27 -33.42180 -60.41562 36110 ft 411 kts 303°
2026-04-27 21:27 -33.38483 -60.46761 36110 ft 411 kts 303°
2026-04-27 21:28 -33.34778 -60.51953 36110 ft 411 kts 303°
2026-04-27 21:28 -33.31124 -60.57078 36116 ft 410 kts 303°
2026-04-27 21:29 -33.27426 -60.62261 36113 ft 411 kts 303°
2026-04-27 21:29 -33.23724 -60.67441 36114 ft 411 kts 303°
2026-04-27 21:30 -33.20014 -60.72623 36113 ft 411 kts 303°
2026-04-27 21:30 -33.16303 -60.77802 36112 ft 411 kts 303°
2026-04-27 21:31 -33.12588 -60.82974 36116 ft 411 kts 303°
2026-04-27 21:31 -33.08874 -60.88149 36116 ft 411 kts 303°
2026-04-27 21:32 -33.05152 -60.93318 36113 ft 412 kts 303°
2026-04-27 21:32 -33.01426 -60.98482 36110 ft 412 kts 303°
2026-04-27 21:33 -32.97709 -61.03652 36114 ft 412 kts 303°
2026-04-27 21:33 -32.93986 -61.08820 36116 ft 412 kts 303°
2026-04-27 21:34 -32.90263 -61.13985 36115 ft 412 kts 303°
2026-04-27 21:34 -32.86536 -61.19151 36109 ft 412 kts 303°
2026-04-27 21:35 -32.82800 -61.24312 36111 ft 413 kts 304°
2026-04-27 21:35 -32.79074 -61.29444 36111 ft 413 kts 304°
2026-04-27 21:36 -32.75338 -61.34592 36111 ft 413 kts 304°
2026-04-27 21:36 -32.71589 -61.39750 36110 ft 413 kts 304°
2026-04-27 21:37 -32.67838 -61.44900 36110 ft 413 kts 304°
2026-04-27 21:37 -32.64089 -61.50051 36107 ft 413 kts 304°
2026-04-27 21:38 -32.60334 -61.55197 36103 ft 414 kts 304°
2026-04-27 21:38 -32.56566 -61.60350 36104 ft 414 kts 304°
2026-04-27 21:39 -32.52792 -61.65497 36102 ft 415 kts 304°
2026-04-27 21:39 -32.49016 -61.70650 36104 ft 415 kts 304°
2026-04-27 21:40 -32.45238 -61.75802 36100 ft 415 kts 304°
2026-04-27 21:40 -32.41449 -61.80955 36099 ft 416 kts 304°
2026-04-27 21:41 -32.37652 -61.86106 36103 ft 417 kts 304°
2026-04-27 21:41 -32.33934 -61.91323 36108 ft 411 kts 298°
2026-04-27 21:42 -32.30989 -61.97053 36108 ft 408 kts 295°
2026-04-27 21:42 -32.28066 -62.02801 36106 ft 409 kts 295°
2026-04-27 21:43 -32.25128 -62.08548 36108 ft 410 kts 295°
2026-04-27 21:43 -32.22187 -62.14303 36109 ft 410 kts 295°
2026-04-27 21:44 -32.19245 -62.20060 36111 ft 410 kts 295°
2026-04-27 21:44 -32.16310 -62.25817 36107 ft 410 kts 295°
2026-04-27 21:45 -32.13368 -62.31564 36108 ft 410 kts 295°
2026-04-27 21:45 -32.10424 -62.37294 36102 ft 410 kts 295°
2026-04-27 21:46 -32.07470 -62.43030 36106 ft 410 kts 295°
2026-04-27 21:46 -32.04523 -62.48764 36106 ft 410 kts 295°
2026-04-27 21:47 -32.01574 -62.54493 36109 ft 410 kts 295°
2026-04-27 21:47 -31.98617 -62.60224 36105 ft 410 kts 296°
2026-04-27 21:48 -31.95647 -62.65956 36103 ft 411 kts 296°
2026-04-27 21:48 -31.92670 -62.71687 36100 ft 411 kts 296°
2026-04-27 21:49 -31.89698 -62.77425 36101 ft 412 kts 296°
2026-04-27 21:49 -31.86721 -62.83161 36102 ft 412 kts 296°
2026-04-27 21:50 -31.83751 -62.88880 36102 ft 411 kts 296°
2026-04-27 21:50 -31.80779 -62.94580 36101 ft 411 kts 296°
2026-04-27 21:51 -31.77797 -63.00293 36095 ft 411 kts 296°
2026-04-27 21:51 -31.74812 -63.05995 36089 ft 411 kts 296°
2026-04-27 21:52 -31.71825 -63.11704 36086 ft 411 kts 296°
2026-04-27 21:52 -31.68833 -63.17413 35942 ft 412 kts 296°
2026-04-27 21:53 -31.67338 -63.20266 35639 ft 411 kts 295°
2026-04-27 21:53 -31.66064 -63.23237 34795 ft 408 kts 288°
2026-04-27 21:53 -31.64976 -63.26328 33856 ft 413 kts 288°
2026-04-27 21:53 -31.63883 -63.29453 32881 ft 418 kts 288°
2026-04-27 21:54 -31.62770 -63.32624 31809 ft 424 kts 288°
2026-04-27 21:54 -31.61648 -63.35837 30732 ft 429 kts 288°
2026-04-27 21:54 -31.60489 -63.39076 29640 ft 435 kts 292°
2026-04-27 21:54 -31.58776 -63.42038 28323 ft 445 kts 308°
2026-04-27 21:55 -31.56537 -63.44568 26387 ft 451 kts 313°
2026-04-27 21:55 -31.54196 -63.47024 24484 ft 453 kts 314°
2026-04-27 21:55 -31.51829 -63.49442 22613 ft 452 kts 315°
2026-04-27 21:55 -31.49469 -63.51830 20971 ft 446 kts 315°
2026-04-27 21:56 -31.47163 -63.54168 19432 ft 438 kts 315°
2026-04-27 21:56 -31.42767 -63.58872 16465 ft 421 kts 313°
2026-04-27 21:56 -31.40677 -63.61231 15004 ft 420 kts 312°
2026-04-27 21:57 -31.38670 -63.63698 14117 ft 416 kts 305°
2026-04-27 21:57 -31.36946 -63.66374 13291 ft 411 kts 303°
2026-04-27 21:57 -31.35224 -63.69012 12473 ft 409 kts 304°
2026-04-27 21:57 -31.33488 -63.71620 11582 ft 407 kts 304°
2026-04-27 21:58 -31.31752 -63.74205 11003 ft 398 kts 305°
2026-04-27 21:58 -31.30086 -63.76674 10874 ft 377 kts 306°
2026-04-27 21:58 -31.28503 -63.79019 10747 ft 359 kts 306°
2026-04-27 21:58 -31.27004 -63.81251 10617 ft 342 kts 305°
2026-04-27 21:59 -31.25574 -63.83385 10496 ft 326 kts 305°
2026-04-27 21:59 -31.24205 -63.85428 10371 ft 313 kts 305°
2026-04-27 21:59 -31.22890 -63.87391 10246 ft 301 kts 305°
2026-04-27 21:59 -31.21625 -63.89282 10049 ft 293 kts 305°
2026-04-27 22:00 -31.20387 -63.91134 9882 ft 287 kts 306°
2026-04-27 22:00 -31.19158 -63.92971 9578 ft 290 kts 306°
2026-04-27 22:00 -31.17923 -63.94812 9227 ft 286 kts 306°
2026-04-27 22:00 -31.16710 -63.96617 8662 ft 281 kts 307°
2026-04-27 22:01 -31.15513 -63.98398 8026 ft 277 kts 307°
2026-04-27 22:01 -31.14334 -64.00153 7506 ft 275 kts 307°
2026-04-27 22:01 -31.13153 -64.01915 7056 ft 275 kts 307°
2026-04-27 22:01 -31.11978 -64.03671 6613 ft 275 kts 307°
2026-04-27 22:02 -31.10819 -64.05396 6395 ft 265 kts 308°
2026-04-27 22:02 -31.09710 -64.07043 6267 ft 253 kts 308°
2026-04-27 22:02 -31.08707 -64.08652 6145 ft 240 kts 298°
2026-04-27 22:02 -31.08176 -64.10453 6040 ft 235 kts 279°
2026-04-27 22:03 -31.08168 -64.12346 6006 ft 234 kts 267°
2026-04-27 22:03 -31.08270 -64.14185 6006 ft 220 kts 267°
2026-04-27 22:03 -31.08361 -64.15913 6004 ft 207 kts 268°
2026-04-27 22:03 -31.08444 -64.17545 6004 ft 198 kts 268°
2026-04-27 22:04 -31.08524 -64.19136 6002 ft 196 kts 270°
2026-04-27 22:04 -31.08217 -64.20643 6002 ft 193 kts 304°
2026-04-27 22:04 -31.07179 -64.21590 6004 ft 194 kts 342°
2026-04-27 22:04 -31.05850 -64.21544 6000 ft 198 kts 23°
2026-04-27 22:05 -31.04634 -64.20759 6014 ft 200 kts 21°
2026-04-27 22:05 -31.03336 -64.20200 5946 ft 198 kts 14°
2026-04-27 22:05 -31.02000 -64.20184 5712 ft 194 kts 338°
2026-04-27 22:05 -31.00976 -64.21129 5486 ft 191 kts 300°
2026-04-27 22:06 -31.00706 -64.22608 5242 ft 190 kts 259°
2026-04-27 22:06 -31.01263 -64.23979 5047 ft 190 kts 232°
2026-04-27 22:06 -31.02145 -64.25135 5000 ft 192 kts 219°
2026-04-27 22:06 -31.03338 -64.25808 5007 ft 194 kts 189°
2026-04-27 22:07 -31.04660 -64.25625 5000 ft 196 kts 156°
2026-04-27 22:07 -31.05701 -64.24611 5014 ft 199 kts 129°
2026-04-27 22:07 -31.06601 -64.23383 5011 ft 200 kts 135°
2026-04-27 22:07 -31.07579 -64.22238 5003 ft 199 kts 140°
2026-04-27 22:08 -31.08745 -64.21410 5005 ft 197 kts 162°
2026-04-27 22:08 -31.10080 -64.21170 5010 ft 195 kts 181°
2026-04-27 22:08 -31.11409 -64.21150 5009 ft 185 kts 180°
2026-04-27 22:08 -31.12656 -64.21131 4857 ft 177 kts 180°
2026-04-27 22:09 -31.13876 -64.21112 4647 ft 174 kts 180°
2026-04-27 22:09 -31.15082 -64.21092 4441 ft 173 kts 180°
2026-04-27 22:09 -31.16281 -64.21073 4202 ft 171 kts 179°
2026-04-27 22:09 -31.17447 -64.21053 3978 ft 165 kts 179°
2026-04-27 22:10 -31.18566 -64.21036 3771 ft 159 kts 179°
2026-04-27 22:10 -31.19656 -64.21018 3559 ft 156 kts 179°
2026-04-27 22:10 -31.20732 -64.21001 3355 ft 154 kts 179°
2026-04-27 22:10 -31.21803 -64.20983 3148 ft 155 kts 178°
2026-04-27 22:11 -31.22879 -64.20965 2940 ft 154 kts 176°
2026-04-27 22:11 -31.23944 -64.20948 2745 ft 153 kts 176°
2026-04-27 22:11 -31.25001 -64.20931 2531 ft 152 kts 176°
2026-04-27 22:11 -31.26051 -64.20914 2339 ft 151 kts 176°
2026-04-27 22:12 -31.27099 -64.20897 2139 ft 150 kts 176°
2026-04-27 22:12 -31.28140 -64.20881 1939 ft 150 kts 177°
2026-04-27 22:12 -31.29177 -64.20863 1743 ft 149 kts 177°
2026-04-27 22:12 -31.30190 -64.20847 1621 ft 140 kts 177°
2026-04-27 22:13 -31.31015 -64.20827 1613 ft 95 kts 180°
2026-04-27 22:13 -31.31362 -64.20826 1617 ft 17 kts 184°
2026-04-27 22:13 -31.31449 -64.20867 1620 ft 13 kts 233°
2026-04-27 22:13 -31.31462 -64.20908 1614 ft 2 kts 259°
2026-04-27 22:14 -31.31463 -64.20921 1616 ft 2 kts 263°
2026-04-27 22:14 -31.31464 -64.20936 1613 ft 2 kts 267°
2026-04-27 22:14 -31.31464 -64.20952 1613 ft 2 kts 269°
2026-04-27 22:14 -31.31465 -64.20968 1613 ft 2 kts 268°
2026-04-27 22:15 -31.31467 -64.20993 1613 ft 6 kts 264°
2026-04-27 22:15 -31.31469 -64.21019 1613 ft 5 kts 263°
2026-04-27 22:15 -31.31475 -64.21056 1620 ft 6 kts 251°
2026-04-27 22:15 -31.31518 -64.21075 1613 ft 1 kts 188°
2026-04-27 22:16 -31.31532 -64.21079 1622 ft 1 kts 204°
2026-04-27 22:16 -31.31539 -64.21098 1618 ft 2 kts 266°
2026-04-27 22:16 -31.31543 -64.21124 1617 ft 2 kts 256°
2026-04-27 22:16 -31.31546 -64.21141 1620 ft 0 kts 258°
2026-04-27 22:17 -31.31549 -64.21154 1617 ft 2 kts 258°
2026-04-27 22:17 -31.31551 -64.21169 1616 ft 3 kts 258°
2026-04-27 22:17 -31.31552 -64.21171 1613 ft 0 kts 258°